Location: Niles Junction
(37.5763°N, 121.9714°W)
Time: 12:14:19
(UTC+00:00)

Cosmos 1697 Rocket - Pass Details

Date: 29 October 2020
Orbit: 831 x 845 km, 71.0° (Epoch: 01 December)

Event Time Altitude Azimuth Distance (km) Brightness Sun altitude
Exits shadow 12:31:55 29° 335° (NNW) 1,502 3.8 -24.0°
Maximum altitude 12:34:56 84° 250° (WSW) 853 2.6 -23.4°
Drops below altitude 10° 12:40:35 10° 162° (SSE) 2,456 5.3 -22.3°
Sets 12:43:01 0° 162° (SSE) 3,387 6.1 -21.8°
